Location: Arcueil
(48.7999°N, 2.3326°E)
Time: 08:55:48
(UTC+00:00)

Cosmos 2333 Rocket - Pass Details

Date: 03 February 2023
Orbit: 837 x 864 km, 70.8° (Epoch: 23 March)

Event Time Altitude Azimuth Distance (km) Brightness Sun altitude
Rises 19:55:24 0° 226° (SW) 3,383 5.8 -30.4°
Reaches altitude 10° 19:57:56 10° 233° (SW) 2,455 5.1 -30.8°
Maximum altitude 20:03:21 47° 306° (NW) 1,114 3.0 -31.7°
Enters shadow 20:04:30 41° 340° (NNW) 1,210 3.1 -31.9°
